Year,Month,Day,Hour,Minute,Value (Times are PST for temperature in C)
2012,09,17,00,00,11.40
2012,09,17,00,01,11.40
2012,09,17,00,02,11.40
2012,09,17,00,03,11.40
2012,09,17,00,04,11.40
2012,09,17,00,05,11.40
2012,09,17,00,06,11.40
2012,09,17,00,07,11.40
2012,09,17,00,08,11.40
2012,09,17,00,09,11.40
2012,09,17,00,10,11.40
2012,09,17,00,11,11.40
2012,09,17,00,12,11.40
2012,09,17,00,13,11.40
2012,09,17,00,14,11.40
2012,09,17,00,15,11.40
2012,09,17,00,16,11.40
2012,09,17,00,17,11.40
2012,09,17,00,18,11.40
2012,09,17,00,19,11.40
2012,09,17,00,20,11.40
2012,09,17,00,21,11.40
2012,09,17,00,22,11.40
2012,09,17,00,23,11.40
2012,09,17,00,24,11.40
2012,09,17,00,25,11.40
2012,09,17,00,26,11.40
2012,09,17,00,27,11.40
2012,09,17,00,28,11.40
2012,09,17,00,29,11.40
2012,09,17,00,30,11.40
2012,09,17,00,31,11.30
2012,09,17,00,32,11.30
2012,09,17,00,33,11.30
2012,09,17,00,34,11.30
2012,09,17,00,35,11.30
2012,09,17,00,36,11.30
2012,09,17,00,37,11.30
2012,09,17,00,38,11.30
2012,09,17,00,39,11.30
2012,09,17,00,40,11.20
2012,09,17,00,41,11.20
2012,09,17,00,42,11.20
2012,09,17,00,43,11.20
2012,09,17,00,44,11.20
2012,09,17,00,45,11.20
2012,09,17,00,46,11.20
2012,09,17,00,47,11.20
2012,09,17,00,48,11.20
2012,09,17,00,49,11.20
2012,09,17,00,50,11.10
2012,09,17,00,51,11.10
2012,09,17,00,52,11.10
2012,09,17,00,53,11.10
2012,09,17,00,54,11.10
2012,09,17,00,55,11.10
2012,09,17,00,56,11.10
2012,09,17,00,57,11.10
2012,09,17,00,58,11.10
2012,09,17,00,59,11.10
2012,09,17,01,00,11.10
2012,09,17,01,01,11.10
2012,09,17,01,02,11.10
2012,09,17,01,03,11.10
2012,09,17,01,04,11.10
2012,09,17,01,05,11.10
2012,09,17,01,06,11.20
2012,09,17,01,07,11.20
2012,09,17,01,08,11.20
2012,09,17,01,09,11.20
2012,09,17,01,10,11.20
2012,09,17,01,11,11.20
2012,09,17,01,12,11.20
2012,09,17,01,13,11.20
2012,09,17,01,14,11.20
2012,09,17,01,15,11.20
2012,09,17,01,16,11.20
2012,09,17,01,17,11.20
2012,09,17,01,18,11.20
2012,09,17,01,19,11.20
2012,09,17,01,20,11.10
2012,09,17,01,21,11.10
2012,09,17,01,22,11.10
2012,09,17,01,23,11.10
2012,09,17,01,24,11.10
2012,09,17,01,25,11.10
2012,09,17,01,26,11.10
2012,09,17,01,27,11.10
2012,09,17,01,28,11.10
2012,09,17,01,29,11.00
2012,09,17,01,30,10.90
2012,09,17,01,31,10.90
2012,09,17,01,32,10.90
2012,09,17,01,33,10.90
2012,09,17,01,34,10.90
2012,09,17,01,35,10.90
2012,09,17,01,36,10.90
2012,09,17,01,37,10.90
2012,09,17,01,38,10.90
2012,09,17,01,39,10.80
2012,09,17,01,40,10.80
2012,09,17,01,41,10.80
2012,09,17,01,42,10.80
2012,09,17,01,43,10.80
2012,09,17,01,44,10.80
2012,09,17,01,45,10.80
2012,09,17,01,46,10.80
2012,09,17,01,47,10.80
2012,09,17,01,48,10.80
2012,09,17,01,49,10.80
2012,09,17,01,50,10.80
2012,09,17,01,51,10.80
2012,09,17,01,52,10.80
2012,09,17,01,53,10.80
2012,09,17,01,54,10.80
2012,09,17,01,55,10.80
2012,09,17,01,56,10.80
2012,09,17,01,57,10.80
2012,09,17,01,58,10.80
2012,09,17,01,59,10.80
2012,09,17,02,00,10.80
2012,09,17,02,01,10.80
2012,09,17,02,02,10.80
2012,09,17,02,03,10.80
2012,09,17,02,04,10.80
2012,09,17,02,05,10.80
2012,09,17,02,06,10.80
2012,09,17,02,07,10.80
2012,09,17,02,08,10.80
2012,09,17,02,09,10.80
2012,09,17,02,10,10.80
2012,09,17,02,11,10.80
2012,09,17,02,12,10.80
2012,09,17,02,13,10.80
2012,09,17,02,14,10.80
2012,09,17,02,15,10.80
2012,09,17,02,16,10.80
2012,09,17,02,17,10.80
2012,09,17,02,18,10.80
2012,09,17,02,19,10.80
2012,09,17,02,20,10.80
2012,09,17,02,21,10.80
2012,09,17,02,22,10.80
2012,09,17,02,23,10.80
2012,09,17,02,24,10.80
2012,09,17,02,25,10.80
2012,09,17,02,26,10.70
2012,09,17,02,27,10.70
2012,09,17,02,28,10.70
2012,09,17,02,29,10.70
2012,09,17,02,30,10.70
2012,09,17,02,31,10.70
2012,09,17,02,32,10.60
2012,09,17,02,33,10.60
2012,09,17,02,34,10.60
2012,09,17,02,35,10.60
2012,09,17,02,36,10.60
2012,09,17,02,37,10.60
2012,09,17,02,38,10.60
2012,09,17,02,39,10.60
2012,09,17,02,40,10.70
2012,09,17,02,41,10.70
2012,09,17,02,42,10.70
2012,09,17,02,43,10.60
2012,09,17,02,44,10.60
2012,09,17,02,45,10.60
2012,09,17,02,46,10.60
2012,09,17,02,47,10.60
2012,09,17,02,48,10.60
2012,09,17,02,49,10.60
2012,09,17,02,50,10.60
2012,09,17,02,51,10.60
2012,09,17,02,52,10.60
2012,09,17,02,53,10.60
2012,09,17,02,54,10.60
2012,09,17,02,55,10.60
2012,09,17,02,56,10.60
2012,09,17,02,57,10.60
2012,09,17,02,58,10.60
2012,09,17,02,59,10.60
2012,09,17,03,00,10.60
2012,09,17,03,01,10.60
2012,09,17,03,02,10.60
2012,09,17,03,03,10.60
2012,09,17,03,04,10.60
2012,09,17,03,05,10.60
2012,09,17,03,06,10.60
2012,09,17,03,07,10.60
2012,09,17,03,08,10.60
2012,09,17,03,09,10.60
2012,09,17,03,10,10.50
2012,09,17,03,11,10.40
2012,09,17,03,12,10.40
2012,09,17,03,13,10.40
2012,09,17,03,14,10.40
2012,09,17,03,15,10.40
2012,09,17,03,16,10.40
2012,09,17,03,17,10.40
2012,09,17,03,18,10.40
2012,09,17,03,19,10.40
2012,09,17,03,20,10.40
2012,09,17,03,21,10.40
2012,09,17,03,22,10.40
2012,09,17,03,23,10.40
2012,09,17,03,24,10.40
2012,09,17,03,25,10.40
2012,09,17,03,26,10.40
2012,09,17,03,27,10.40
2012,09,17,03,28,10.40
2012,09,17,03,29,10.40
2012,09,17,03,30,10.40
2012,09,17,03,31,10.40
2012,09,17,03,32,10.40
2012,09,17,03,33,10.40
2012,09,17,03,34,10.40
2012,09,17,03,35,10.40
2012,09,17,03,36,10.40
2012,09,17,03,37,10.40
2012,09,17,03,38,10.40
2012,09,17,03,39,10.40
2012,09,17,03,40,10.40
2012,09,17,03,41,10.40
2012,09,17,03,42,10.40
2012,09,17,03,43,10.30
2012,09,17,03,44,10.30
2012,09,17,03,45,10.30
2012,09,17,03,46,10.40
2012,09,17,03,47,10.40
2012,09,17,03,48,10.40
2012,09,17,03,49,10.40
2012,09,17,03,50,10.40
2012,09,17,03,51,10.50
2012,09,17,03,52,10.60
2012,09,17,03,53,10.60
2012,09,17,03,54,10.60
2012,09,17,03,55,10.60
2012,09,17,03,56,10.60
2012,09,17,03,57,10.60
2012,09,17,03,58,10.60
2012,09,17,03,59,10.60
2012,09,17,04,00,10.60
2012,09,17,04,01,10.60
2012,09,17,04,02,10.60
2012,09,17,04,03,10.60
2012,09,17,04,04,10.40
2012,09,17,04,05,10.40
2012,09,17,04,06,10.40
2012,09,17,04,07,10.40
2012,09,17,04,08,10.40
2012,09,17,04,09,10.40
2012,09,17,04,10,10.40
2012,09,17,04,11,10.40
2012,09,17,04,12,10.40
2012,09,17,04,13,10.40
2012,09,17,04,14,10.40
2012,09,17,04,15,10.40
2012,09,17,04,16,10.40
2012,09,17,04,17,10.40
2012,09,17,04,18,10.50
2012,09,17,04,19,10.60
2012,09,17,04,20,10.60
2012,09,17,04,21,10.60
2012,09,17,04,22,10.60
2012,09,17,04,23,10.60
2012,09,17,04,24,10.60
2012,09,17,04,25,10.60
2012,09,17,04,26,10.60
2012,09,17,04,27,10.60
2012,09,17,04,28,10.60
2012,09,17,04,29,10.60
2012,09,17,04,30,10.60
2012,09,17,04,31,10.60
2012,09,17,04,32,10.60
2012,09,17,04,33,10.60
2012,09,17,04,34,10.60
2012,09,17,04,35,10.60
2012,09,17,04,36,10.60
2012,09,17,04,37,10.60
2012,09,17,04,38,10.50
2012,09,17,04,39,10.40
2012,09,17,04,40,10.40
2012,09,17,04,41,10.40
2012,09,17,04,42,10.40
2012,09,17,04,43,10.40
2012,09,17,04,44,10.40
2012,09,17,04,45,10.40
2012,09,17,04,46,10.30
2012,09,17,04,47,10.30
2012,09,17,04,48,10.30
2012,09,17,04,49,10.30
2012,09,17,04,50,10.30
2012,09,17,04,51,10.30
2012,09,17,04,52,10.40
2012,09,17,04,53,10.40
2012,09,17,04,54,10.40
2012,09,17,04,55,10.40
2012,09,17,04,56,10.40
2012,09,17,04,57,10.40
2012,09,17,04,58,10.40
2012,09,17,04,59,10.40
2012,09,17,05,00,10.40
2012,09,17,05,01,10.40
2012,09,17,05,02,10.40
2012,09,17,05,03,10.40
2012,09,17,05,04,10.40
2012,09,17,05,05,10.40
2012,09,17,05,06,10.50
2012,09,17,05,07,10.60
2012,09,17,05,08,10.60
2012,09,17,05,09,10.60
2012,09,17,05,10,10.60
2012,09,17,05,11,10.60
2012,09,17,05,12,10.60
2012,09,17,05,13,10.50
2012,09,17,05,14,10.40
2012,09,17,05,15,10.40
2012,09,17,05,16,10.40
2012,09,17,05,17,10.40
2012,09,17,05,18,10.40
2012,09,17,05,19,10.40
2012,09,17,05,20,10.40
2012,09,17,05,21,10.40
2012,09,17,05,22,10.30
2012,09,17,05,23,10.30
2012,09,17,05,24,10.30
2012,09,17,05,25,10.30
2012,09,17,05,26,10.40
2012,09,17,05,27,10.40
2012,09,17,05,28,10.40
2012,09,17,05,29,10.40
2012,09,17,05,30,10.40
2012,09,17,05,31,10.30
2012,09,17,05,32,10.30
2012,09,17,05,33,10.30
2012,09,17,05,34,10.30
2012,09,17,05,35,10.20
2012,09,17,05,36,10.20
2012,09,17,05,37,10.20
2012,09,17,05,38,10.20
2012,09,17,05,39,10.10
2012,09,17,05,40,10.10
2012,09,17,05,41,10.10
2012,09,17,05,42,10.10
2012,09,17,05,43,10.10
2012,09,17,05,44,10.10
2012,09,17,05,45,10.10
2012,09,17,05,46,10.10
2012,09,17,05,47,10.10
2012,09,17,05,48,10.00
2012,09,17,05,49,9.90
2012,09,17,05,50,9.90
2012,09,17,05,51,9.90
2012,09,17,05,52,9.90
2012,09,17,05,53,9.90
2012,09,17,05,54,9.90
2012,09,17,05,55,9.90
2012,09,17,05,56,9.90
2012,09,17,05,57,9.90
2012,09,17,05,58,9.90
2012,09,17,05,59,9.90
2012,09,17,06,00,9.90
2012,09,17,06,01,9.90
2012,09,17,06,02,9.90
2012,09,17,06,03,9.90
2012,09,17,06,04,9.90
2012,09,17,06,05,9.90
2012,09,17,06,06,9.90
2012,09,17,06,07,9.90
2012,09,17,06,08,9.90
2012,09,17,06,09,9.90
2012,09,17,06,10,9.90
2012,09,17,06,11,9.90
2012,09,17,06,12,9.90
2012,09,17,06,13,9.90
2012,09,17,06,14,9.90
2012,09,17,06,15,9.90
2012,09,17,06,16,9.90
2012,09,17,06,17,9.90
2012,09,17,06,18,9.90
2012,09,17,06,19,9.90
2012,09,17,06,20,9.90
2012,09,17,06,21,9.90
2012,09,17,06,22,9.90
2012,09,17,06,23,9.90
2012,09,17,06,24,9.90
2012,09,17,06,25,9.90
2012,09,17,06,26,9.90
2012,09,17,06,27,9.90
2012,09,17,06,28,10.00
2012,09,17,06,29,10.10
2012,09,17,06,30,10.10
2012,09,17,06,31,10.10
2012,09,17,06,32,10.00
2012,09,17,06,33,9.90
2012,09,17,06,34,9.90
2012,09,17,06,35,9.90
2012,09,17,06,36,9.90
2012,09,17,06,37,9.90
2012,09,17,06,38,9.90
2012,09,17,06,39,9.90
2012,09,17,06,40,9.90
2012,09,17,06,41,9.90
2012,09,17,06,42,9.90
2012,09,17,06,43,9.90
2012,09,17,06,44,9.90
2012,09,17,06,45,9.90
2012,09,17,06,46,9.90
2012,09,17,06,47,9.90
2012,09,17,06,48,9.90
2012,09,17,06,49,9.90
2012,09,17,06,50,9.90
2012,09,17,06,51,9.90
2012,09,17,06,52,9.90
2012,09,17,06,53,9.90
2012,09,17,06,54,9.90
2012,09,17,06,55,9.80
2012,09,17,06,56,9.80
2012,09,17,06,57,9.80
2012,09,17,06,58,9.80
2012,09,17,06,59,9.80
2012,09,17,07,00,9.80
2012,09,17,07,01,9.80
2012,09,17,07,02,9.80
2012,09,17,07,03,9.70
2012,09,17,07,04,9.80
2012,09,17,07,05,9.70
2012,09,17,07,06,9.70
2012,09,17,07,07,9.70
2012,09,17,07,08,9.70
2012,09,17,07,09,9.70
2012,09,17,07,10,9.70
2012,09,17,07,11,9.70
2012,09,17,07,12,9.70
2012,09,17,07,13,9.70
2012,09,17,07,14,9.70
2012,09,17,07,15,9.70
2012,09,17,07,16,9.70
2012,09,17,07,17,9.70
2012,09,17,07,18,9.70
2012,09,17,07,19,9.70
2012,09,17,07,20,9.70
2012,09,17,07,21,9.80
2012,09,17,07,22,9.80
2012,09,17,07,23,9.90
2012,09,17,07,24,9.90
2012,09,17,07,25,10.00
2012,09,17,07,26,10.10
2012,09,17,07,27,10.10
2012,09,17,07,28,10.10
2012,09,17,07,29,10.10
2012,09,17,07,30,10.10
2012,09,17,07,31,10.10
2012,09,17,07,32,10.10
2012,09,17,07,33,10.10
2012,09,17,07,34,10.10
2012,09,17,07,35,10.10
2012,09,17,07,36,10.10
2012,09,17,07,37,10.20
2012,09,17,07,38,10.20
2012,09,17,07,39,10.20
2012,09,17,07,40,10.20
2012,09,17,07,41,10.30
2012,09,17,07,42,10.30
2012,09,17,07,43,10.30
2012,09,17,07,44,10.30
2012,09,17,07,45,10.30
2012,09,17,07,46,10.40
2012,09,17,07,47,10.40
2012,09,17,07,48,10.40
2012,09,17,07,49,10.60
2012,09,17,07,50,10.60
2012,09,17,07,51,10.70
2012,09,17,07,52,10.80
2012,09,17,07,53,10.80
2012,09,17,07,54,10.90
2012,09,17,07,55,11.00
2012,09,17,07,56,11.10
2012,09,17,07,57,11.20
2012,09,17,07,58,11.30
2012,09,17,07,59,11.30
2012,09,17,08,00,11.40
2012,09,17,08,01,11.40
2012,09,17,08,02,11.50
2012,09,17,08,03,11.60
2012,09,17,08,04,11.60
2012,09,17,08,05,11.70
2012,09,17,08,06,11.70
2012,09,17,08,07,11.80
2012,09,17,08,08,11.80
2012,09,17,08,09,11.90
2012,09,17,08,10,11.90
2012,09,17,08,11,12.00
2012,09,17,08,12,12.00
2012,09,17,08,13,12.10
2012,09,17,08,14,12.20
2012,09,17,08,15,12.20
2012,09,17,08,16,12.30
2012,09,17,08,17,12.30
2012,09,17,08,18,12.40
2012,09,17,08,19,12.40
2012,09,17,08,20,12.50
2012,09,17,08,21,12.60
2012,09,17,08,22,12.70
2012,09,17,08,23,12.80
2012,09,17,08,24,12.80
2012,09,17,08,25,13.00
2012,09,17,08,26,13.10
2012,09,17,08,27,13.20
2012,09,17,08,28,13.30
2012,09,17,08,29,13.40
2012,09,17,08,30,13.40
2012,09,17,08,31,13.50
2012,09,17,08,32,13.60
2012,09,17,08,33,13.60
2012,09,17,08,34,13.70
2012,09,17,08,35,13.70
2012,09,17,08,36,13.80
2012,09,17,08,37,13.90
2012,09,17,08,38,13.90
2012,09,17,08,39,14.00
2012,09,17,08,40,14.10
2012,09,17,08,41,14.10
2012,09,17,08,42,14.20
2012,09,17,08,43,14.20
2012,09,17,08,44,14.40
2012,09,17,08,45,14.50
2012,09,17,08,46,14.60
2012,09,17,08,47,14.70
2012,09,17,08,48,14.90
2012,09,17,08,49,15.00
2012,09,17,08,50,15.20
2012,09,17,08,51,15.30
2012,09,17,08,52,15.40
2012,09,17,08,53,15.50
2012,09,17,08,54,15.60
2012,09,17,08,55,15.70
2012,09,17,08,56,15.90
2012,09,17,08,57,16.00
2012,09,17,08,58,16.10
2012,09,17,08,59,16.20
2012,09,17,09,00,16.30
2012,09,17,09,01,16.40
2012,09,17,09,02,16.40
2012,09,17,09,03,16.40
2012,09,17,09,04,16.50
2012,09,17,09,05,16.60
2012,09,17,09,06,16.70
2012,09,17,09,07,16.70
2012,09,17,09,08,16.70
2012,09,17,09,09,16.70
2012,09,17,09,10,16.70
2012,09,17,09,11,16.70
2012,09,17,09,12,16.70
2012,09,17,09,13,16.70
2012,09,17,09,14,16.70
2012,09,17,09,15,16.70
2012,09,17,09,16,16.80
2012,09,17,09,17,16.80
2012,09,17,09,18,16.90
2012,09,17,09,19,16.90
2012,09,17,09,20,16.90
2012,09,17,09,21,17.00
2012,09,17,09,22,17.00
2012,09,17,09,23,17.00
2012,09,17,09,24,17.00
2012,09,17,09,25,17.00
2012,09,17,09,26,17.00
2012,09,17,09,27,17.00
2012,09,17,09,28,17.00
2012,09,17,09,29,17.00
2012,09,17,09,30,17.00
2012,09,17,09,31,17.00
2012,09,17,09,32,17.10
2012,09,17,09,33,17.10
2012,09,17,09,34,17.20
2012,09,17,09,35,17.20
2012,09,17,09,36,17.20
2012,09,17,09,37,17.20
2012,09,17,09,38,17.20
2012,09,17,09,39,17.30
2012,09,17,09,40,17.30
2012,09,17,09,41,17.30
2012,09,17,09,42,17.30
2012,09,17,09,43,17.30
2012,09,17,09,44,17.30
2012,09,17,09,45,17.30
2012,09,17,09,46,17.30
2012,09,17,09,47,17.30
2012,09,17,09,48,17.30
2012,09,17,09,49,17.30
2012,09,17,09,50,17.30
2012,09,17,09,51,17.30
2012,09,17,09,52,17.30
2012,09,17,09,53,17.30
2012,09,17,09,54,17.40
2012,09,17,09,55,17.40
2012,09,17,09,56,17.50
2012,09,17,09,57,17.50
2012,09,17,09,58,17.50
2012,09,17,09,59,17.60
2012,09,17,10,00,17.60
2012,09,17,10,01,17.60
2012,09,17,10,02,17.60
2012,09,17,10,03,17.70
2012,09,17,10,04,17.70
2012,09,17,10,05,17.80
2012,09,17,10,06,17.90
2012,09,17,10,07,17.90
2012,09,17,10,08,18.10
2012,09,17,10,09,18.20
2012,09,17,10,10,18.20
2012,09,17,10,11,18.30
2012,09,17,10,12,18.30
2012,09,17,10,13,18.40
2012,09,17,10,14,18.40
2012,09,17,10,15,18.50
2012,09,17,10,16,18.60
2012,09,17,10,17,18.60
2012,09,17,10,18,18.70
2012,09,17,10,19,18.70
2012,09,17,10,20,18.80
2012,09,17,10,21,18.80
2012,09,17,10,22,18.80
2012,09,17,10,23,18.90
2012,09,17,10,24,18.90
2012,09,17,10,25,18.90
2012,09,17,10,26,19.00
2012,09,17,10,27,19.10
2012,09,17,10,28,19.20
2012,09,17,10,29,19.40
2012,09,17,10,30,19.50
2012,09,17,10,31,19.60
2012,09,17,10,32,19.80
2012,09,17,10,33,19.90
2012,09,17,10,34,20.00
2012,09,17,10,35,20.10
2012,09,17,10,36,20.20
2012,09,17,10,37,20.30
2012,09,17,10,38,20.40
2012,09,17,10,39,20.50
2012,09,17,10,40,20.50
2012,09,17,10,41,20.60
2012,09,17,10,42,20.60
2012,09,17,10,43,20.60
2012,09,17,10,44,20.60
2012,09,17,10,45,20.50
2012,09,17,10,46,20.50
2012,09,17,10,47,20.50
2012,09,17,10,48,20.60
2012,09,17,10,49,20.70
2012,09,17,10,50,20.70
2012,09,17,10,51,20.80
2012,09,17,10,52,20.80
2012,09,17,10,53,20.90
2012,09,17,10,54,20.90
2012,09,17,10,55,21.00
2012,09,17,10,56,21.00
2012,09,17,10,57,21.00
2012,09,17,10,58,21.00
2012,09,17,10,59,20.90
2012,09,17,11,00,20.90
2012,09,17,11,01,20.80
2012,09,17,11,02,20.80
2012,09,17,11,03,20.80
2012,09,17,11,04,20.80
2012,09,17,11,05,20.80
2012,09,17,11,06,20.70
2012,09,17,11,07,20.70
2012,09,17,11,08,20.70
2012,09,17,11,09,20.70
2012,09,17,11,10,20.70
2012,09,17,11,11,20.70
2012,09,17,11,12,20.70
2012,09,17,11,13,20.80
2012,09,17,11,14,20.80
2012,09,17,11,15,20.80
2012,09,17,11,16,20.90
2012,09,17,11,17,21.00
2012,09,17,11,18,21.10
2012,09,17,11,19,21.20
2012,09,17,11,20,21.20
2012,09,17,11,21,21.20
2012,09,17,11,22,21.30
2012,09,17,11,23,21.30
2012,09,17,11,24,21.30
2012,09,17,11,25,21.30
2012,09,17,11,26,21.30
2012,09,17,11,27,21.30
2012,09,17,11,28,21.30
2012,09,17,11,29,21.40
2012,09,17,11,30,21.50
2012,09,17,11,31,21.60
2012,09,17,11,32,21.60
2012,09,17,11,33,21.50
2012,09,17,11,34,21.50
2012,09,17,11,35,21.60
2012,09,17,11,36,21.60
2012,09,17,11,37,21.60
2012,09,17,11,38,21.70
2012,09,17,11,39,21.80
2012,09,17,11,40,21.80
2012,09,17,11,41,21.80
2012,09,17,11,42,21.80
2012,09,17,11,43,21.80
2012,09,17,11,44,21.80
2012,09,17,11,45,21.70
2012,09,17,11,46,21.70
2012,09,17,11,47,21.60
2012,09,17,11,48,21.60
2012,09,17,11,49,21.60
2012,09,17,11,50,21.60
2012,09,17,11,51,21.60
2012,09,17,11,52,21.60
2012,09,17,11,53,21.60
2012,09,17,11,54,21.60
2012,09,17,11,55,21.60
2012,09,17,11,56,21.70
2012,09,17,11,57,21.70
2012,09,17,11,58,21.70
2012,09,17,11,59,21.70
2012,09,17,12,00,21.70
2012,09,17,12,01,21.70
2012,09,17,12,02,21.80
2012,09,17,12,03,21.80
2012,09,17,12,04,21.90
2012,09,17,12,05,21.90
2012,09,17,12,06,21.90
2012,09,17,12,07,21.90
2012,09,17,12,08,21.90
2012,09,17,12,09,21.90
2012,09,17,12,10,21.90
2012,09,17,12,11,21.90
2012,09,17,12,12,22.00
2012,09,17,12,13,22.10
2012,09,17,12,14,22.10
2012,09,17,12,15,22.10
2012,09,17,12,16,22.20
2012,09,17,12,17,22.20
2012,09,17,12,18,22.20
2012,09,17,12,19,22.30
2012,09,17,12,20,22.30
2012,09,17,12,21,22.30
2012,09,17,12,22,22.40
2012,09,17,12,23,22.40
2012,09,17,12,24,22.30
2012,09,17,12,25,22.30
2012,09,17,12,26,22.30
2012,09,17,12,27,22.30
2012,09,17,12,28,22.30
2012,09,17,12,29,22.30
2012,09,17,12,30,22.30
2012,09,17,12,31,22.40
2012,09,17,12,32,22.40
2012,09,17,12,33,22.40
2012,09,17,12,34,22.40
2012,09,17,12,35,22.30
2012,09,17,12,36,22.30
2012,09,17,12,37,22.30
2012,09,17,12,38,22.20
2012,09,17,12,39,22.20
2012,09,17,12,40,22.20
2012,09,17,12,41,22.30
2012,09,17,12,42,22.40
2012,09,17,12,43,22.40
2012,09,17,12,44,22.50
2012,09,17,12,45,22.60
2012,09,17,12,46,22.70
2012,09,17,12,47,22.70
2012,09,17,12,48,22.80
2012,09,17,12,49,22.90
2012,09,17,12,50,22.90
2012,09,17,12,51,22.90
2012,09,17,12,52,22.90
2012,09,17,12,53,22.90
2012,09,17,12,54,22.90
2012,09,17,12,55,23.10
2012,09,17,12,56,23.20
2012,09,17,12,57,23.30
2012,09,17,12,58,23.30
2012,09,17,12,59,23.40
2012,09,17,13,00,23.50
2012,09,17,13,01,23.60
2012,09,17,13,02,23.60
2012,09,17,13,03,23.70
2012,09,17,13,04,23.70
2012,09,17,13,05,23.70
2012,09,17,13,06,23.70
2012,09,17,13,07,23.80
2012,09,17,13,08,23.80
2012,09,17,13,09,23.90
2012,09,17,13,10,23.90
2012,09,17,13,11,24.00
2012,09,17,13,12,24.10
2012,09,17,13,13,24.10
2012,09,17,13,14,24.00
2012,09,17,13,15,23.90
2012,09,17,13,16,23.90
2012,09,17,13,17,23.80
2012,09,17,13,18,23.70
2012,09,17,13,19,23.60
2012,09,17,13,20,23.50
2012,09,17,13,21,23.30
2012,09,17,13,22,23.30
2012,09,17,13,23,23.30
2012,09,17,13,24,23.20
2012,09,17,13,25,23.20
2012,09,17,13,26,23.10
2012,09,17,13,27,23.10
2012,09,17,13,28,23.10
2012,09,17,13,29,23.10
2012,09,17,13,30,23.10
2012,09,17,13,31,23.10
2012,09,17,13,32,23.10
2012,09,17,13,33,23.00
2012,09,17,13,34,22.90
2012,09,17,13,35,22.90
2012,09,17,13,36,22.90
2012,09,17,13,37,22.90
2012,09,17,13,38,22.90
2012,09,17,13,39,22.90
2012,09,17,13,40,23.00
2012,09,17,13,41,23.10
2012,09,17,13,42,23.10
2012,09,17,13,43,23.20
2012,09,17,13,44,23.30
2012,09,17,13,45,23.30
2012,09,17,13,46,23.30
2012,09,17,13,47,23.30
2012,09,17,13,48,23.40
2012,09,17,13,49,23.40
2012,09,17,13,50,23.40
2012,09,17,13,51,23.40
2012,09,17,13,52,23.40
2012,09,17,13,53,23.30
2012,09,17,13,54,23.30
2012,09,17,13,55,23.20
2012,09,17,13,56,23.20
2012,09,17,13,57,23.20
2012,09,17,13,58,23.20
2012,09,17,13,59,23.20
2012,09,17,14,00,23.20
2012,09,17,14,01,23.20
2012,09,17,14,02,23.30
2012,09,17,14,03,23.30
2012,09,17,14,04,23.30
2012,09,17,14,05,23.40
2012,09,17,14,06,23.40
2012,09,17,14,07,23.50
2012,09,17,14,08,23.60
2012,09,17,14,09,23.60
2012,09,17,14,10,23.70
2012,09,17,14,11,23.70
2012,09,17,14,12,23.70
2012,09,17,14,13,23.80
2012,09,17,14,14,23.90
2012,09,17,14,15,23.90
2012,09,17,14,16,24.00
2012,09,17,14,17,24.10
2012,09,17,14,18,24.10
2012,09,17,14,19,24.10
2012,09,17,14,20,24.10
2012,09,17,14,21,24.20
2012,09,17,14,22,24.20
2012,09,17,14,23,24.30
2012,09,17,14,24,24.30
2012,09,17,14,25,24.30
2012,09,17,14,26,24.30
2012,09,17,14,27,24.40
2012,09,17,14,28,24.40
2012,09,17,14,29,24.40
2012,09,17,14,30,24.30
2012,09,17,14,31,24.20
2012,09,17,14,32,24.20
2012,09,17,14,33,24.30
2012,09,17,14,34,24.20
2012,09,17,14,35,24.20
2012,09,17,14,36,24.20
2012,09,17,14,37,24.20
2012,09,17,14,38,24.10
2012,09,17,14,39,24.10
2012,09,17,14,40,24.10
2012,09,17,14,41,24.10
2012,09,17,14,42,24.10
2012,09,17,14,43,24.10
2012,09,17,14,44,24.10
2012,09,17,14,45,24.00
2012,09,17,14,46,23.90
2012,09,17,14,47,23.80
2012,09,17,14,48,23.80
2012,09,17,14,49,23.80
2012,09,17,14,50,23.70
2012,09,17,14,51,23.70
2012,09,17,14,52,23.80
2012,09,17,14,53,23.90
2012,09,17,14,54,23.90
2012,09,17,14,55,24.00
2012,09,17,14,56,24.10
2012,09,17,14,57,24.10
2012,09,17,14,58,24.30
2012,09,17,14,59,24.30
2012,09,17,15,00,24.40
2012,09,17,15,01,24.40
2012,09,17,15,02,24.40
2012,09,17,15,03,24.40
2012,09,17,15,04,24.40
2012,09,17,15,05,24.30
2012,09,17,15,06,24.30
2012,09,17,15,07,24.30
2012,09,17,15,08,24.20
2012,09,17,15,09,24.20
2012,09,17,15,10,24.20
2012,09,17,15,11,24.10
2012,09,17,15,12,24.10
2012,09,17,15,13,24.10
2012,09,17,15,14,24.20
2012,09,17,15,15,24.20
2012,09,17,15,16,24.30
2012,09,17,15,17,24.30
2012,09,17,15,18,24.30
2012,09,17,15,19,24.20
2012,09,17,15,20,24.10
2012,09,17,15,21,23.90
2012,09,17,15,22,23.80
2012,09,17,15,23,23.70
2012,09,17,15,24,23.70
2012,09,17,15,25,23.70
2012,09,17,15,26,23.60
2012,09,17,15,27,23.50
2012,09,17,15,28,23.30
2012,09,17,15,29,23.20
2012,09,17,15,30,23.10
2012,09,17,15,31,23.00
2012,09,17,15,32,22.90
2012,09,17,15,33,22.80
2012,09,17,15,34,22.80
2012,09,17,15,35,22.80
2012,09,17,15,36,22.70
2012,09,17,15,37,22.70
2012,09,17,15,38,22.80
2012,09,17,15,39,22.80
2012,09,17,15,40,22.80
2012,09,17,15,41,22.80
2012,09,17,15,42,22.60
2012,09,17,15,43,22.50
2012,09,17,15,44,22.30
2012,09,17,15,45,22.20
2012,09,17,15,46,22.10
2012,09,17,15,47,22.00
2012,09,17,15,48,21.90
2012,09,17,15,49,21.90
2012,09,17,15,50,21.90
2012,09,17,15,51,22.00
2012,09,17,15,52,22.00
2012,09,17,15,53,22.00
2012,09,17,15,54,21.90
2012,09,17,15,55,21.80
2012,09,17,15,56,21.70
2012,09,17,15,57,21.70
2012,09,17,15,58,21.70
2012,09,17,15,59,21.70
2012,09,17,16,00,21.60
2012,09,17,16,01,21.60
2012,09,17,16,02,21.60
2012,09,17,16,03,21.60
2012,09,17,16,04,21.70
2012,09,17,16,05,21.70
2012,09,17,16,06,21.80
2012,09,17,16,07,21.80
2012,09,17,16,08,21.70
2012,09,17,16,09,21.60
2012,09,17,16,10,21.60
2012,09,17,16,11,21.60
2012,09,17,16,12,21.60
2012,09,17,16,13,21.60
2012,09,17,16,14,21.70
2012,09,17,16,15,21.60
2012,09,17,16,16,21.60
2012,09,17,16,17,21.60
2012,09,17,16,18,21.60
2012,09,17,16,19,21.60
2012,09,17,16,20,21.60
2012,09,17,16,21,21.50
2012,09,17,16,22,21.40
2012,09,17,16,23,21.40
2012,09,17,16,24,21.40
2012,09,17,16,25,21.40
2012,09,17,16,26,21.50
2012,09,17,16,27,21.60
2012,09,17,16,28,21.60
2012,09,17,16,29,21.60
2012,09,17,16,30,21.70
2012,09,17,16,31,21.80
2012,09,17,16,32,21.90
2012,09,17,16,33,22.00
2012,09,17,16,34,22.00
2012,09,17,16,35,22.00
2012,09,17,16,36,22.10
2012,09,17,16,37,22.20
2012,09,17,16,38,22.20
2012,09,17,16,39,22.20
2012,09,17,16,40,22.20
2012,09,17,16,41,22.20
2012,09,17,16,42,22.30
2012,09,17,16,43,22.40
2012,09,17,16,44,22.40
2012,09,17,16,45,22.50
2012,09,17,16,46,22.60
2012,09,17,16,47,22.60
2012,09,17,16,48,22.70
2012,09,17,16,49,22.70
2012,09,17,16,50,22.70
2012,09,17,16,51,22.70
2012,09,17,16,52,22.70
2012,09,17,16,53,22.70
2012,09,17,16,54,22.80
2012,09,17,16,55,22.70
2012,09,17,16,56,22.70
2012,09,17,16,57,22.70
2012,09,17,16,58,22.70
2012,09,17,16,59,22.60
2012,09,17,17,00,22.60
2012,09,17,17,01,22.60
2012,09,17,17,02,22.60
2012,09,17,17,03,22.60
2012,09,17,17,04,22.60
2012,09,17,17,05,22.60
2012,09,17,17,06,22.60
2012,09,17,17,07,22.70
2012,09,17,17,08,22.70
2012,09,17,17,09,22.80
2012,09,17,17,10,22.80
2012,09,17,17,11,22.80
2012,09,17,17,12,22.70
2012,09,17,17,13,22.70
2012,09,17,17,14,22.60
2012,09,17,17,15,22.60
2012,09,17,17,16,22.60
2012,09,17,17,17,22.60
2012,09,17,17,18,22.60
2012,09,17,17,19,22.60
2012,09,17,17,20,22.60
2012,09,17,17,21,22.50
2012,09,17,17,22,22.50
2012,09,17,17,23,22.50